YAOGAN 11

导读

遥感十一号(YAOGAN 11)是中国于2010年9月22日在酒泉卫星发射中心,通过长征二号丁运载火箭发射入轨的遥感卫星,同时搭载发射了浙江大学研制的两颗皮星一号A卫星。作为中国遥感卫星系列的重要成员,它主要依托星载遥感器对地球开展观测,可获取空间遥感信息,在国土资源勘察、环境监测、灾害评估、农业估产及科学研究等领域发挥重要作用,推动了中国对地观测体系的建设与发展。

基本信息
目录编号:
37165
目录名称:
YAOGAN 11
国际标识:
2010-047A
轨道中心:
EARTH
卫星名称:
YAOGAN 11
卫星全名:
--
卫星状态:
在轨 (已飞行5833 天)
发射日期:
2010-09-22 UTC
国别 :
中国 (CN)
星等 :
--
该卫星已列入 空间交会检测服务 Space Conjunction Data Service (SCDS) ,当前飞行风险评估等级: 无高风险
轨道信息
数据来源 国际轨道数据
星历时间: 2026-09-10T23:41:02+0800
15小时前
查看轨道信息
半长轴: 7000.556km
偏心率: 0.0034032
轨道倾角: 98.371°
近地点辐角 329.553°
升交点赤经 123.737°
平近点角 30.370°
近地点: 598.594km
远地点: 646.244km
周期: 97.154分钟
每日圈数: 14.821904
详细信息
使用方式:
暂无
2D轨道图
3D轨道图
轨道高度分析图
轨道倾角分析图
轨道综合分析图
查看轨道综合分析图
与全量物体交会距离演化趋势
与全量物体交会风险概率演化趋势